Location: Goettingen
(51.5300°N, 9.9433°E)
Time: 05:05:36
(UTC+02:00)

ISS - Pass Details

Date: 18 May 2018
Orbit: 402 x 407 km, 51.6° (Epoch: 25 May)

Event Time Altitude Azimuth Distance (km) Brightness Sun altitude
Exits shadow 03:21:01 - 276° (W) 1,717 -0.9 -13.9°
Reaches altitude 10° 03:21:38 10° 276° (W) 1,458 -1.3 -13.9°
Maximum altitude 03:24:55 90° 245° (WSW) 408 -3.9 -13.6°
Drops below altitude 10° 03:28:11 10° 97° (E) 1,457 -0.7 -13.4°
Sets 03:30:16 0° 98° (E) 2,316 0.4 -13.2°
